[[{"header":{"parameterUnit":"m.s-1","parameterCategory":1,"la1":30.2991,"la2":30.254,"lo1":-89.0895,"lo2":-89.0444,"dy":0.0017,"dx":0.0017,"nx":28,"ny":28,"refTime":"2025-04-08T03:00:00:Z","depth":0,"parameterNumber":2,"parameterNumberName":"U-component_of_WINDS"},"data":[0,0,0,0,0,0,0,0,0,0,0,0,0,0,0,0,0,0,0,0,0,0,0,0,0,0,0,0,0,0,0,0,0,0,0,0,0,0,0,0,0,0,0,0,0,0,0,0,0,0,0,0,0,0,0,0,0,0,2.1316,2.1317,0,2.1412,2.1413,2.1414,2.1436,2.1435,2.1435,2.1434,2.1535,2.1538,2.1541,0,0,0,0,0,0,0,0,0,0,0,0,0,2.1154,2.1156,2.1315,2.1317,2.1318,2.1412,2.1413,2.1415,2.1436,2.1435,2.1435,2.1434,2.1534,2.1538,2.1541,0,0,0,0,0,0,0,0,0,0,0,0,0,2.1234,2.1157,2.1315,2.134,2.1343,2.1412,2.1413,2.1415,2.1436,2.1435,2.1434,2.1433,2.1532,2.1537,2.1542,2.1593,0,0,2.1557,2.1559,0,0,0,0,0,0,0,0,2.123,2.124,2.1335,2.1338,2.1342,2.1411,2.1393,2.1475,2.1437,2.1401,2.1434,2.1433,2.1494,2.1502,2.1523,2.1598,2.1602,2.1558,2.1561,2.1563,2.1564,0,0,0,0,0,0,0,2.1224,2.1236,2.1354,2.1337,2.1341,2.1348,2.1358,2.1409,2.1452,2.1404,2.1406,2.1417,2.1496,2.1518,2.1525,2.1604,2.1558,2.1562,2.1565,2.1567,2.1729,2.173,0,0,0,0,0,0,2.1214,2.1231,2.1351,2.1357,2.1282,2.1351,2.1363,2.139,2.1452,2.146,2.1418,2.1418,2.151,2.152,2.1529,2.1595,2.1563,2.1567,2.157,2.1728,2.1729,2.1731,0,0,0,0,0,0,2.121,2.1224,2.1347,2.1295,2.1311,2.1355,2.1385,2.1392,2.1414,2.1462,2.147,2.1432,2.151,2.1522,2.1578,2.1599,2.157,2.1574,2.1726,2.1728,2.173,2.1726,0,0,0,0,0,0,2.1206,2.1223,2.1242,2.1295,2.1313,2.1393,2.1387,2.1395,2.1423,2.1423,2.1478,2.1486,2.151,2.157,2.1583,2.1605,2.1578,2.1724,2.1727,2.1729,2.1725,2.1728,2.1731,0,0,0,0,0,2.12,2.1237,2.1242,2.1257,2.1338,2.1394,2.1405,2.1431,2.1424,2.1444,2.1476,2.1484,2.1594,2.1576,2.159,2.1614,2.1723,2.1726,2.1729,2.1723,2.1727,2.1731,0,0,0,0,0,0,2.1185,2.1244,2.1251,2.1306,2.1345,2.1397,2.1423,2.1434,2.1476,2.1475,2.1507,2.1519,2.1573,2.1599,2.1577,2.1669,2.1659,2.1665,2.165,2.1654,2.1656,2.1649,2.1582,0,0,0,0,0,2.1188,2.1227,2.1277,2.1321,2.134,2.1378,2.1404,2.1421,2.1463,2.1479,2.1514,2.1555,2.16,2.1628,2.1671,2.1729,2.1742,2.1753,2.1756,2.1758,2.1763,2.1798,2.1804,2.174,2.174,2.174,0,0,2.1195,2.1232,2.1255,2.1319,2.1351,2.1393,2.1392,2.1436,2.1468,2.1486,2.1541,2.1569,2.1616,2.1674,2.1701,2.1697,2.1783,2.1762,2.1763,2.1767,2.1802,2.1808,2.1813,2.1742,2.1742,2.1742,0,0,2.1229,2.126,2.1301,2.1333,2.1382,2.1408,2.1418,2.1469,2.1488,2.1544,2.156,2.1599,2.1673,2.1707,2.1735,2.1784,2.1794,2.1798,2.1813,2.1847,2.1852,2.1857,2.1876,2.1883,2.1802,2.1802,2.1802,0,2.1231,2.1294,2.1321,2.1365,2.1393,2.1412,2.1455,2.1486,2.1546,2.1566,2.1561,2.1657,2.1691,2.1758,2.177,2.1791,2.1805,2.1792,2.1849,2.1854,2.1859,2.1878,2.1885,2.1802,2.1802,2.1802,2.1802,0,2.1296,2.1339,2.1367,2.1425,2.1457,2.1499,2.1535,2.1564,2.1579,2.1606,2.1664,2.1705,2.1758,2.1775,2.179,2.1845,2.1842,2.1842,2.1833,2.1864,2.1883,2.189,2.1803,2.1803,2.1803,2.1803,0,0,2.1322,2.1396,2.1406,2.1434,2.149,2.1524,2.1569,2.1621,2.1646,2.1688,2.1728,2.1792,2.1794,2.1825,2.1844,2.1873,2.1913,2.1871,2.1873,2.1879,2.1979,2.1979,2.1987,2.192,2.1921,2.1922,2.1976,0,2.1364,2.1444,2.1471,2.1538,2.158,2.16,2.1639,2.1679,2.1706,2.1746,2.1776,2.1822,2.1819,2.1839,2.1869,2.1902,2.1934,2.1898,2.1959,2.1961,2.1947,2.1996,2.1996,2.2044,2.1983,2.1984,2.1985,0,2.1424,2.1467,2.1538,2.1591,2.161,2.1644,2.1695,2.1733,2.1779,2.1797,2.1833,2.185,2.19,2.1888,2.1958,2.1933,2.196,2.198,2.1983,2.199,2.1975,2.2007,2.206,2.2068,2.1996,2.1996,2.1995,0,2.1438,2.1514,2.1567,2.159,2.1652,2.1677,2.1704,2.175,2.178,2.1825,2.1845,2.1895,2.1923,2.1962,2.1993,2.1981,2.2062,2.2051,2.2079,2.2079,2.2096,2.2095,2.2156,2.2111,2.2111,2.2111,2.211,0,2.1483,2.1527,2.1575,2.1607,2.1657,2.1689,2.1738,2.1766,2.1807,2.1847,2.1867,2.1904,2.1943,2.1986,2.2011,2.2067,2.2079,2.2096,2.2102,2.2094,2.2093,2.2113,2.2111,2.2112,2.2112,2.2112,2.2111,0,2.1508,2.1542,2.1601,2.1656,2.1671,2.1706,2.1753,2.1787,2.1815,2.1866,2.1879,2.1924,2.1976,2.2011,2.2077,2.2094,2.2155,2.216,2.214,2.2143,2.217,2.2167,2.2247,2.226,2.2205,2.2205,2.2206,0,2.1535,2.1569,2.1628,2.1656,2.1684,2.1728,2.176,2.1792,2.1824,2.1881,2.1908,2.1961,2.2006,2.2088,2.2127,2.2179,2.2186,2.2211,2.2194,2.2187,2.2189,2.2187,2.2192,2.2214,2.2214,2.2214,2.2215,0,2.158,2.1596,2.1639,2.169,2.1727,2.1768,2.1809,2.1832,2.1872,2.1907,2.1961,2.1995,2.2064,2.2117,2.2173,2.2203,2.2216,2.222,2.2229,2.2222,2.221,2.2219,2.2148,2.2218,2.2217,2.2217,2.2217,2.2217,2.1608,2.164,2.1687,2.1736,2.1771,2.181,2.1845,2.1878,2.1922,2.198,2.1997,2.2054,2.2102,2.2178,2.2209,2.2254,2.2252,2.2265,2.2269,2.2272,2.2273,2.2202,2.2264,2.2264,2.2264,2.2264,2.2264,0,2.1656,2.1688,2.1732,2.179,2.1829,2.1838,2.1885,2.1918,2.1967,2.201,2.2053,2.2116,2.2169,2.2212,2.2267,2.2295,2.2303,2.2309,2.2308,2.2315,2.2271,2.2258,2.2302,2.2302,2.2302,2.2302,2.2302,2.2302,2.1686,2.1741,2.1762,2.1836,2.1868,2.1923,2.1949,2.1986,2.2021,2.209,2.2133,2.2161,2.2206,2.2264,2.2314,2.2325,2.2345,2.235,2.2363,2.2322,2.2318,2.2314,2.2302,2.2354,2.2354,2.2404,2.2404,2.2404]},{"header":{"parameterUnit":"m.s-1","parameterCategory":1,"la1":30.2991,"la2":30.254,"lo1":-89.0895,"lo2":-89.0444,"dy":0.0017,"dx":0.0017,"nx":28,"ny":28,"refTime":"2025-04-08T03:00:00:Z","depth":0,"parameterNumber":3,"parameterNumberName":"V-component_of_WINDS"},"data":[0,0,0,0,0,0,0,0,0,0,0,0,0,0,0,0,0,0,0,0,0,0,0,0,0,0,0,0,0,0,0,0,0,0,0,0,0,0,0,0,0,0,0,0,0,0,0,0,0,0,0,0,0,0,0,0,0,0,-3.3859,-3.3859,0,-3.3899,-3.3899,-3.39,-3.3963,-3.3964,-3.3965,-3.3966,-3.4004,-3.4004,-3.4004,0,0,0,0,0,0,0,0,0,0,0,0,0,-3.3837,-3.3837,-3.3859,-3.3859,-3.386,-3.3899,-3.3899,-3.39,-3.3963,-3.3964,-3.3966,-3.3967,-3.4004,-3.4004,-3.4004,0,0,0,0,0,0,0,0,0,0,0,0,0,-3.3858,-3.3837,-3.3859,-3.3896,-3.39,-3.3898,-3.3899,-3.39,-3.3963,-3.3964,-3.3966,-3.3968,-3.4004,-3.4004,-3.4004,-3.3968,0,0,-3.4003,-3.4003,0,0,0,0,0,0,0,0,-3.3857,-3.3859,-3.389,-3.3894,-3.3898,-3.3928,-3.3905,-3.3923,-3.3962,-3.3939,-3.3966,-3.3969,-3.3977,-3.3979,-3.3983,-3.397,-3.3971,-3.4003,-3.4003,-3.4003,-3.4003,0,0,0,0,0,0,0,-3.3855,-3.3857,-3.3875,-3.3891,-3.3895,-3.3911,-3.3916,-3.3909,-3.3947,-3.3941,-3.3946,-3.395,-3.3979,-3.3983,-3.3984,-3.3972,-3.4003,-3.4003,-3.4003,-3.4003,-3.3933,-3.3931,0,0,0,0,0,0,-3.3849,-3.3856,-3.3873,-3.3876,-3.3881,-3.391,-3.3915,-3.3916,-3.3948,-3.3954,-3.3948,-3.3952,-3.3982,-3.3984,-3.3986,-3.3946,-3.4003,-3.4003,-3.4003,-3.3935,-3.3933,-3.3931,0,0,0,0,0,0,-3.3848,-3.3849,-3.3872,-3.3867,-3.3871,-3.3908,-3.3909,-3.3916,-3.392,-3.3953,-3.396,-3.3944,-3.3984,-3.3986,-3.3972,-3.3948,-3.4003,-3.4003,-3.3937,-3.3934,-3.3932,-3.3866,0,0,0,0,0,0,-3.3847,-3.3849,-3.3836,-3.3866,-3.3871,-3.3858,-3.3907,-3.3916,-3.3919,-3.3926,-3.3952,-3.3957,-3.3985,-3.3972,-3.3972,-3.3949,-3.4003,-3.3939,-3.3936,-3.3933,-3.3871,-3.3862,-3.3854,0,0,0,0,0,-3.3846,-3.3815,-3.3835,-3.3836,-3.3856,-3.3856,-3.3859,-3.3892,-3.3917,-3.3904,-3.3926,-3.3957,-3.3951,-3.397,-3.3971,-3.3947,-3.3941,-3.3937,-3.3933,-3.3874,-3.3864,-3.3854,0,0,0,0,0,0,-3.3778,-3.3819,-3.3842,-3.382,-3.3834,-3.3867,-3.3851,-3.3879,-3.3886,-3.3891,-3.3932,-3.3937,-3.3918,-3.3932,-3.3952,-3.3915,-3.3951,-3.3947,-3.3906,-3.3896,-3.3888,-3.3884,-3.4003,0,0,0,0,0,-3.3762,-3.3759,-3.3795,-3.3772,-3.3779,-3.3814,-3.3815,-3.384,-3.3856,-3.3862,-3.3883,-3.3897,-3.3899,-3.3898,-3.3902,-3.3874,-3.388,-3.3858,-3.385,-3.3843,-3.3838,-3.3825,-3.3815,-3.3917,-3.3918,-3.3918,0,0,-3.3725,-3.3748,-3.3743,-3.3759,-3.3773,-3.377,-3.3818,-3.3812,-3.381,-3.3861,-3.385,-3.3866,-3.3884,-3.3863,-3.3855,-3.3874,-3.3812,-3.3838,-3.3832,-3.3831,-3.382,-3.381,-3.3801,-3.3915,-3.3915,-3.3916,0,0,-3.3658,-3.3675,-3.3658,-3.3672,-3.3693,-3.3717,-3.3713,-3.3742,-3.3755,-3.3745,-3.3784,-3.3782,-3.3783,-3.3795,-3.3801,-3.3741,-3.3769,-3.3741,-3.3696,-3.3683,-3.3675,-3.3668,-3.3646,-3.3637,-3.3736,-3.3736,-3.3736,0,-3.361,-3.3606,-3.3645,-3.3637,-3.3643,-3.3692,-3.3675,-3.3686,-3.3706,-3.3709,-3.3731,-3.3735,-3.3751,-3.3734,-3.3719,-3.3723,-3.3719,-3.3737,-3.3673,-3.3666,-3.366,-3.364,-3.3631,-3.3733,-3.3733,-3.3733,-3.3734,0,-3.3546,-3.3544,-3.3528,-3.3548,-3.3553,-3.354,-3.3576,-3.3576,-3.3601,-3.3623,-3.3613,-3.3634,-3.3642,-3.3641,-3.3664,-3.3627,-3.3638,-3.3666,-3.3702,-3.3646,-3.3628,-3.362,-3.3727,-3.3729,-3.373,-3.3731,0,0,-3.3434,-3.3479,-3.3472,-3.3482,-3.3511,-3.3509,-3.3499,-3.351,-3.3508,-3.3522,-3.3514,-3.3516,-3.3542,-3.3549,-3.3575,-3.3564,-3.3514,-3.3593,-3.3594,-3.3576,-3.3475,-3.3453,-3.3443,-3.3534,-3.3533,-3.3532,-3.3473,0,-3.3371,-3.3357,-3.3393,-3.337,-3.3368,-3.3416,-3.3407,-3.3423,-3.3444,-3.3445,-3.3469,-3.3469,-3.3504,-3.3508,-3.3499,-3.3522,-3.3494,-3.3527,-3.3526,-3.3526,-3.3519,-3.3433,-3.341,-3.3353,-3.3466,-3.3465,-3.3464,0,-3.3295,-3.3306,-3.3283,-3.3315,-3.3316,-3.3307,-3.332,-3.3321,-3.3341,-3.3357,-3.3366,-3.3397,-3.339,-3.3426,-3.3416,-3.3438,-3.3441,-3.3452,-3.3451,-3.345,-3.349,-3.3429,-3.3335,-3.3326,-3.3453,-3.3454,-3.3454,0,-3.3215,-3.3224,-3.3212,-3.322,-3.3256,-3.3249,-3.3264,-3.3286,-3.329,-3.3302,-3.3305,-3.3315,-3.3319,-3.3326,-3.3359,-3.3383,-3.3345,-3.3385,-3.3358,-3.3357,-3.3346,-3.3345,-3.3249,-3.335,-3.335,-3.335,-3.335,0,-3.314,-3.3123,-3.3177,-3.3169,-3.3153,-3.3194,-3.3177,-3.3196,-3.3216,-3.3213,-3.3255,-3.325,-3.3295,-3.3296,-3.3322,-3.331,-3.3312,-3.3324,-3.3331,-3.3319,-3.3317,-3.332,-3.3324,-3.3348,-3.3348,-3.3349,-3.3349,0,-3.3046,-3.3081,-3.3071,-3.3107,-3.3116,-3.3102,-3.3133,-3.3127,-3.3152,-3.3148,-3.3149,-3.3187,-3.319,-3.3225,-3.3235,-3.3253,-3.323,-3.3245,-3.3223,-3.3227,-3.3198,-3.32,-3.3098,-3.3087,-3.3196,-3.3195,-3.3194,0,-3.2994,-3.2983,-3.3019,-3.3021,-3.3034,-3.3036,-3.3041,-3.3082,-3.3086,-3.3109,-3.3101,-3.3108,-3.3116,-3.3119,-3.3147,-3.3156,-3.317,-3.3135,-3.3172,-3.3161,-3.3169,-3.3168,-3.3167,-3.3125,-3.3124,-3.3123,-3.3122,0,-3.2899,-3.2918,-3.2924,-3.2937,-3.2943,-3.2955,-3.2969,-3.2968,-3.3013,-3.3015,-3.302,-3.3026,-3.3039,-3.3045,-3.3059,-3.3074,-3.3105,-3.3111,-3.3105,-3.3092,-3.3079,-3.3085,-3.32,-3.3112,-3.3113,-3.3114,-3.3114,-3.3115,-3.2824,-3.2817,-3.2842,-3.2848,-3.2864,-3.2877,-3.2873,-3.2899,-3.2904,-3.2917,-3.2942,-3.2943,-3.2965,-3.2988,-3.3,-3.3002,-3.302,-3.3011,-3.3009,-3.3006,-3.2999,-3.3081,-3.3004,-3.3005,-3.3005,-3.3005,-3.3006,0,-3.2731,-3.275,-3.2755,-3.2775,-3.278,-3.2812,-3.283,-3.2831,-3.2832,-3.2851,-3.2858,-3.2864,-3.2871,-3.2901,-3.2912,-3.2907,-3.2922,-3.2908,-3.2908,-3.2911,-3.2983,-3.2986,-3.2896,-3.2896,-3.2896,-3.2896,-3.2896,-3.2896,-3.2682,-3.2672,-3.2694,-3.2692,-3.2711,-3.2713,-3.2721,-3.2733,-3.2749,-3.2754,-3.276,-3.2781,-3.2804,-3.2817,-3.2825,-3.2833,-3.2835,-3.2816,-3.2829,-3.2895,-3.2906,-3.2915,-3.2919,-3.2816,-3.2816,-3.2757,-3.2756,-3.2756]}]]